DW0383 Weather Reports


time (UTC)temp
C
wind
direction
speed
KPH
gust
KPH
rain 1hr
cm
rain 24hr
cm
rain mn
cm
humidity
%
barometer
mb
20260507120320 6 325 3.2 9.7 0.00 1.75 0.00 99 1008.2
20260507115813 6 335 3.2 4.8 0.00 1.96 0.00 99 1008.1
20260507115307 6 333 1.6 3.2 0.00 1.96 0.00 99 1008.0
20260507114819 6 333 0.0 1.6 0.00 1.96 0.00 99 1007.9
20260507114312 5 333 0.0 1.6 0.00 1.96 0.00 99 1007.9
20260507113806 5 333 0.0 1.6 0.00 1.96 0.00 99 1007.9
20260507113339 5 333 0.0 1.6 0.00 1.96 0.00 99 1007.9
20260507112832 5 333 0.0 3.2 0.00 1.96 0.00 99 1007.8
20260507112323 5 333 1.6 3.2 0.00 1.96 0.00 99 1007.7
20260507111817 5 16 1.6 3.2 0.00 1.96 0.00 99 1007.9
20260507111310 5 162 0.0 1.6 0.00 1.96 0.00 99 1007.9
20260507110822 5 162 0.0 1.6 0.00 1.96 0.00 99 1007.9
20260507110310 5 162 0.0 1.6 0.00 1.96 0.00 99 1007.9
20260507105811 5 162 0.0 1.6 0.00 2.01 0.00 99 1007.9
20260507105343 5 162 0.0 1.6 0.00 2.01 0.00 99 1007.8
20260507104814 5 162 0.0 1.6 0.00 2.01 0.00 99 1007.7
20260507104307 5 162 0.0 1.6 0.00 2.01 0.00 99 1007.6
20260507103824 5 162 0.0 1.6 0.00 2.01 0.00 99 1007.6
20260507103318 5 162 0.0 1.6 0.00 2.01 0.00 99 1007.4
20260507102810 5 162 0.0 1.6 0.00 2.01 0.00 99 1007.4
20260507102344 5 162 0.0 1.6 0.00 2.01 0.00 99 1007.5
20260507101814 4 162 0.0 1.6 0.00 2.01 0.00 99 1007.5
20260507101307 4 162 0.0 1.6 0.00 2.01 0.00 99 1007.6
20260507100820 4 162 0.0 1.6 0.00 2.01 0.00 99 1007.5
20260507100312 4 162 0.0 1.6 0.00 2.01 0.00 99 1007.5
20260507095825 4 162 0.0 3.2 0.00 2.13 0.00 99 1007.6
20260507095317 4 162 1.6 3.2 0.00 2.13 0.00 99 1007.6
20260507094817 4 141 1.6 3.2 0.00 2.13 0.00 99 1007.5
20260507094310 4 60 0.0 3.2 0.00 2.13 0.00 99 1007.6
20260507093822 4 60 0.0 3.2 0.00 2.13 0.00 99 1007.6
20260507093315 4 99 1.6 3.2 0.00 2.13 0.00 99 1007.3
20260507092808 4 95 1.6 3.2 0.00 2.13 0.00 99 1007.3
20260507092320 4 95 3.2 3.2 0.00 2.13 0.00 98 1007.4
20260507091813 4 82 0.0 3.2 0.00 2.13 0.00 98 1007.5
20260507091345 4 82 0.0 3.2 0.00 2.13 0.00 98 1007.7
20260507090816 4 82 1.6 3.2 0.00 2.13 0.00 98 1007.5
20260507090313 4 70 1.6 3.2 0.00 2.13 0.00 98 1007.6
20260507085826 4 70 0.0 1.6 0.00 2.24 0.00 98 1007.6
20260507085319 4 70 0.0 3.2 0.00 2.24 0.00 98 1007.5
20260507084832 4 70 0.0 3.2 0.00 2.24 0.00 98 1007.5
20260507084345 4 321 1.6 3.2 0.00 2.24 0.00 98 1007.5
20260507083816 4 321 1.6 3.2 0.00 2.24 0.00 98 1007.5
20260507083308 4 321 0.0 1.6 0.00 2.24 0.00 99 1007.6
20260507082819 4 321 0.0 0.0 0.00 2.24 0.00 98 1007.8
20260507082312 4 321 0.0 1.6 0.00 2.24 0.00 99 1007.9
20260507081806 4 321 0.0 1.6 0.00 2.24 0.00 99 1007.9
20260507081319 4 321 0.0 1.6 0.00 2.24 0.00 99 1007.8
20260507080811 4 321 1.6 1.6 0.00 2.24 0.00 99 1007.8
20260507080344 4 321 0.0 1.6 0.00 2.24 0.00 99 1007.8
20260507075816 4 321 0.0 1.6 0.00 2.34 0.00 98 1007.9
20260507075308 4 321 0.0 1.6 0.00 2.34 0.00 98 1007.7
20260507074842 4 321 0.0 3.2 0.00 2.34 0.00 98 1007.9
20260507074333 3 321 1.6 3.2 0.00 2.34 0.00 98 1007.8
20260507073844 3 321 0.0 1.6 0.00 2.34 0.00 98 1008.0
20260507073312 3 321 0.0 1.6 0.00 2.34 0.00 98 1008.1
20260507072824 3 321 1.6 3.2 0.00 2.34 0.00 98 1008.1
20260507072318 3 321 1.6 4.8 0.00 2.34 0.00 98 1007.9
20260507071811 3 100 3.2 4.8 0.00 2.34 0.00 98 1007.8
20260507071305 3 331 3.2 3.2 0.00 2.34 0.00 98 1007.6
20260507070807 4 324 1.6 3.2 0.00 2.34 0.00 98 1007.6
20260507070320 4 337 0.0 3.2 0.00 2.34 0.00 98 1007.7
20260507065813 4 54 1.6 3.2 0.00 2.36 0.00 98 1007.5
20260507065334 4 54 0.0 1.6 0.00 2.36 0.00 98 1007.5
20260507064805 4 54 0.0 1.6 0.00 2.36 0.00 98 1007.4
20260507064317 4 54 1.6 1.6 0.00 2.36 0.00 98 1007.5
20260507063829 4 54 0.0 1.6 0.00 2.36 0.00 98 1007.5
20260507063321 4 54 0.0 1.6 0.00 2.36 0.00 98 1007.4
20260507062813 4 54 0.0 1.6 0.00 2.36 0.00 98 1007.5
20260507062307 4 54 0.0 1.6 0.00 2.36 0.00 98 1007.5
20260507061820 4 54 1.6 1.6 0.00 2.36 0.00 98 1007.6
20260507061312 4 54 0.0 1.6 0.00 2.36 0.00 98 1007.6
20260507060825 4 54 0.0 1.6 0.00 2.36 0.00 98 1007.6
20260507060308 4 54 0.0 3.2 0.00 2.36 0.00 98 1007.9
20260507055842 4 54 0.0 3.2 0.00 2.49 0.00 98 1007.9
20260507055313 4 54 1.6 3.2 0.00 2.49 0.00 98 1008.0
20260507054807 4 54 1.6 3.2 0.00 2.49 0.00 98 1007.9
20260507054320 4 315 0.0 3.2 0.00 2.49 0.00 98 1007.9
20260507053814 4 315 1.6 3.2 0.00 2.49 0.00 98 1007.9
20260507053310 4 315 3.2 3.2 0.00 2.49 0.00 98 1007.9
20260507052824 4 315 1.6 3.2 0.00 2.49 0.00 98 1008.0
20260507052318 4 315 1.6 3.2 0.00 2.49 0.00 97 1008.0
20260507051833 4 315 0.0 3.2 0.00 2.49 0.00 97 1008.0
20260507051325 4 315 0.0 3.2 0.00 2.49 0.00 97 1008.1
20260507050817 4 315 0.0 1.6 0.00 2.49 0.00 98 1008.2
20260507050308 5 315 0.0 3.2 0.00 2.49 0.00 98 1008.2
20260507045820 5 315 0.0 3.2 0.00 2.64 0.00 97 1008.4
20260507045311 5 315 1.6 3.2 0.00 2.64 0.00 98 1008.5
20260507044824 5 315 0.0 3.2 0.00 2.64 0.00 98 1008.6
20260507044316 5 315 0.0 3.2 0.00 2.64 0.00 98 1008.6
20260507043809 5 315 1.6 3.2 0.00 2.64 0.00 98 1008.5
20260507043322 5 315 0.0 3.2 0.00 2.64 0.00 98 1008.6
20260507042814 5 315 1.6 3.2 0.00 2.64 0.00 98 1008.4
20260507042307 5 315 0.0 1.6 0.00 2.64 0.00 98 1008.6
20260507041818 5 315 0.0 3.2 0.00 2.64 0.00 98 1008.5
20260507041311 5 315 1.6 3.2 0.00 2.64 0.00 98 1008.5
20260507040824 5 315 0.0 1.6 0.00 2.64 0.00 98 1008.6
20260507040316 5 315 0.0 0.0 0.00 2.64 0.00 97 1008.5
20260507035808 5 315 0.0 0.0 0.00 2.92 2.64 97 1008.5
20260507035321 5 315 0.0 1.6 0.00 2.92 2.64 97 1008.5
20260507034814 5 315 0.0 1.6 0.00 2.92 2.64 97 1008.5
20260507034310 5 315 0.0 1.6 0.00 2.92 2.64 97 1008.4
20260507033825 5 315 0.0 1.6 0.00 2.92 2.64 97 1008.4
20260507033318 5 315 1.6 1.6 0.00 2.92 2.64 97 1008.6
20260507032830 5 315 0.0 1.6 0.00 2.92 2.64 97 1008.6
20260507032321 5 315 0.0 1.6 0.00 2.92 2.64 97 1008.6
20260507031813 5 315 0.0 1.6 0.00 2.92 2.64 97 1008.7
20260507031306 5 315 0.0 1.6 0.00 2.92 2.64 97 1008.6
20260507030818 5 315 0.0 1.6 0.00 2.92 2.64 98 1008.8
20260507030332 5 315 0.0 1.6 0.00 2.92 2.64 98 1008.8
20260507025823 6 315 0.0 0.0 0.00 2.92 2.64 97 1008.7
20260507025315 6 315 0.0 0.0 0.00 2.92 2.64 97 1008.7
20260507024809 6 315 0.0 0.0 0.00 2.92 2.64 97 1008.8
20260507024341 6 315 0.0 0.0 0.00 2.92 2.64 97 1008.7
20260507023812 6 315 0.0 0.0 0.00 2.92 2.64 98 1008.7
20260507023307 6 315 0.0 1.6 0.00 2.92 2.64 97 1008.6
20260507022819 6 315 0.0 1.6 0.00 2.92 2.64 98 1008.7
20260507022310 6 315 0.0 1.6 0.00 2.92 2.64 98 1008.7
20260507021809 6 315 0.0 3.2 0.00 2.92 2.64 98 1008.6
20260507021321 6 315 1.6 3.2 0.03 2.92 2.64 98 1008.6
20260507020812 6 315 1.6 3.2 0.03 2.92 2.64 97 1008.3
20260507020345 6 315 0.0 0.0 0.03 2.92 2.64 98 1008.5
20260507015816 6 315 0.0 1.6 0.03 2.95 2.64 97 1008.7
20260507015327 6 315 0.0 1.6 0.03 2.95 2.64 98 1008.7
20260507014817 6 315 0.0 3.2 0.03 2.95 2.64 97 1008.9
20260507014310 6 315 1.6 3.2 0.05 2.95 2.64 98 1008.9
20260507013824 6 315 0.0 1.6 0.05 2.95 2.64 98 1008.7
20260507013317 6 315 0.0 3.2 0.05 2.95 2.64 98 1008.8
20260507012808 6 315 0.0 3.2 0.08 2.95 2.64 98 1008.8
20260507012320 6 315 1.6 3.2 0.08 2.95 2.64 98 1008.9
20260507011813 6 315 0.0 3.2 0.08 2.95 2.64 98 1008.8
20260507011306 6 315 1.6 3.2 0.08 2.92 2.62 98 1008.9
20260507010839 6 315 1.6 3.2 0.10 2.92 2.62 98 1008.9
20260507010312 6 315 1.6 3.2 0.10 2.92 2.62 97 1008.7
20260507005813 6 315 0.0 1.6 0.10 2.95 2.62 97 1008.6
20260507005306 6 315 1.6 1.6 0.10 2.95 2.62 97 1008.6
20260507004819 6 315 1.6 3.2 0.10 2.95 2.62 97 1008.6
20260507004316 6 315 1.6 1.6 0.10 2.92 2.59 97 1008.5
20260507003809 6 315 0.0 3.2 0.10 2.92 2.59 97 1008.5
20260507003321 6 315 1.6 4.8 0.10 2.92 2.59 97 1008.5
20260507002813 6 325 3.2 4.8 0.08 2.90 2.57 97 1008.4
20260507002325 6 330 3.2 4.8 0.08 2.90 2.57 97 1008.2
20260507001817 6 282 1.6 3.2 0.08 2.90 2.57 97 1008.2
20260507001306 6 276 1.6 4.8 0.05 2.87 2.54 97 1008.0
20260507000819 6 276 1.6 4.8 0.03 2.84 2.51 97 1008.0
20260507000314 6 318 1.6 3.2 0.03 2.84 2.51 97 1007.9
20260506235806 6 318 1.6 4.8 0.03 2.84 2.51 97 1007.8
20260506235320 6 318 1.6 4.8 0.03 2.84 2.51 97 1007.5
20260506234813 6 339 1.6 3.2 0.03 2.84 2.51 97 1007.4
20260506234326 6 339 1.6 3.2 0.00 2.82 2.49 97 1007.3
20260506233839 6 339 0.0 1.6 0.00 2.82 2.49 97 1007.4
20260506233312 6 339 0.0 1.6 0.00 2.82 2.49 97 1007.3
20260506232825 6 339 0.0 1.6 0.00 2.82 2.49 97 1007.3
20260506232319 6 339 0.0 3.2 0.00 2.82 2.49 97 1007.2
20260506231811 6 339 1.6 3.2 0.00 2.82 2.49 97 1007.2
20260506231345 6 339 1.6 3.2 0.00 2.82 2.49 97 1007.1
20260506230818 6 339 0.0 3.2 0.00 2.82 2.49 97 1007.0
20260506230330 6 339 0.0 3.2 0.00 2.82 2.49 96 1007.1
20260506225822 6 325 0.0 3.2 0.00 2.82 2.49 97 1007.2
20260506225314 6 325 0.0 6.4 0.00 2.82 2.49 97 1007.2
20260506224825 6 320 3.2 8.0 0.00 2.82 2.49 97 1007.5
20260506224317 6 316 1.6 8.0 0.00 2.82 2.49 96 1007.5
20260506223806 6 312 3.2 6.4 0.00 2.82 2.49 96 1007.4
20260506223319 6 316 3.2 8.0 0.03 2.82 2.49 96 1007.2
20260506222832 6 39 1.6 8.0 0.03 2.82 2.49 96 1007.2
20260506222312 6 319 1.6 4.8 0.03 2.82 2.49 97 1007.2
20260506221825 6 316 1.6 6.4 0.03 2.82 2.49 97 1007.2
20260506221336 6 316 3.2 8.0 0.03 2.82 2.49 96 1007.3
20260506220807 6 303 3.2 6.4 0.03 2.82 2.49 96 1007.3
20260506220319 6 315 3.2 6.4 0.03 2.82 2.49 96 1007.2
20260506215820 6 66 1.6 6.4 0.03 2.82 2.49 96 1007.1
20260506215312 6 326 4.8 6.4 0.05 2.82 2.49 97 1007.1
20260506214809 6 318 1.6 4.8 0.08 2.82 2.49 97 1007.2
20260506214339 6 314 3.2 4.8 0.08 2.82 2.49 96 1007.1
20260506213815 6 328 3.2 6.4 0.10 2.82 2.49 96 1007.1
20260506213307 7 320 3.2 6.4 0.08 2.79 2.46 97 1007.1
20260506212822 7 316 1.6 4.8 0.10 2.79 2.46 97 1006.9
20260506212334 7 335 3.2 6.4 0.10 2.79 2.46 97 1006.9
20260506211824 7 316 3.2 6.4 0.13 2.79 2.46 97 1006.9
20260506211318 7 322 3.2 4.8 0.15 2.79 2.46 97 1006.7
20260506210830 7 328 1.6 4.8 0.15 2.79 2.46 97 1006.7
20260506210322 6 309 3.2 9.7 0.18 2.79 2.46 97 1006.9
20260506205816 6 315 3.2 8.0 0.18 3.05 2.46 97 1006.9
20260506205309 6 337 4.8 6.4 0.15 3.02 2.44 97 1007.3
20260506204820 6 323 1.6 6.4 0.13 3.00 2.41 97 1007.2
20260506204321 6 325 3.2 6.4 0.13 3.00 2.41 96 1007.1
20260506203813 6 321 3.2 4.8 0.10 2.97 2.39 96 1007.1
20260506203325 6 3 1.6 4.8 0.10 2.97 2.39 97 1007.0
20260506202817 6 312 1.6 4.8 0.10 2.95 2.36 97 1007.2
20260506202309 6 320 3.2 4.8 0.10 2.95 2.36 96 1007.1
20260506201822 6 329 3.2 4.8 0.08 2.92 2.34 96 1006.9
20260506201336 6 339 0.0 6.4 0.05 2.90 2.31 96 1006.9
20260506200827 6 14 1.6 6.4 0.05 2.90 2.31 96 1007.0
20260506200321 6 326 0.0 4.8 0.05 2.87 2.29 96 1006.9
20260506195812 6 326 1.6 4.8 0.05 3.12 2.29 96 1006.8
20260506195346 6 325 3.2 4.8 0.05 3.12 2.29 96 1006.7
20260506194817 6 332 3.2 4.8 0.05 3.12 2.29 97 1006.7
20260506194329 6 327 1.6 4.8 0.08 3.12 2.29 96 1006.7
20260506193807 6 331 3.2 3.2 0.08 3.12 2.29 96 1006.6
20260506193320 6 350 1.6 4.8 0.08 3.12 2.29 96 1006.7
20260506192812 6 85 1.6 4.8 0.08 3.10 2.26 96 1006.5
20260506192345 6 291 1.6 8.0 0.08 3.10 2.26 96 1006.6
20260506191816 6 55 4.8 9.7 0.08 3.10 2.26 96 1006.4
20260506191311 6 83 4.8 8.0 0.08 3.10 2.26 96 1006.5
20260506190825 6 77 4.8 8.0 0.05 3.07 2.24 96 1006.5
20260506190325 6 330 0.0 4.8 0.05 3.07 2.24 97 1006.6
20260506185827 6 330 0.0 4.8 0.08 3.12 2.24 97 1006.8
20260506185320 6 323 1.6 4.8 0.08 3.12 2.24 97 1006.9
20260506184832 6 27 1.6 4.8 0.10 3.12 2.24 97 1007.0
20260506184343 6 326 1.6 4.8 0.10 3.10 2.21 97 1007.2
20260506183818 6 329 1.6 4.8 0.13 3.10 2.21 97 1007.0
20260506183309 6 328 1.6 4.8 0.13 3.10 2.21 97 1007.1
20260506182809 6 334 1.6 8.0 0.13 3.07 2.18 97 1007.2
20260506182322 6 320 1.6 8.0 0.15 3.07 2.18 97 1007.2
20260506181813 6 324 0.0 4.8 0.18 3.07 2.18 97 1007.2
20260506181306 6 324 1.6 4.8 0.18 3.07 2.18 97 1007.5
20260506180818 6 320 1.6 4.8 0.20 3.07 2.18 97 1007.5
20260506180310 6 320 1.6 4.8 0.18 3.05 2.16 97 1007.5
20260506175844 6 325 1.6 4.8 0.18 3.05 2.16 97 1007.4
20260506175336 6 313 0.0 3.2 0.20 3.05 2.16 97 1007.6
20260506174810 6 313 1.6 3.2 0.20 3.02 2.13 97 1007.7
20260506174321 6 313 0.0 3.2 0.18 3.00 2.11 97 1007.6
20260506173814 6 313 0.0 3.2 0.18 2.97 2.08 97 1007.6
20260506173307 6 313 0.0 3.2 0.20 2.97 2.08 96 1007.7
20260506172821 6 313 0.0 4.8 0.23 2.95 2.06 96 1007.6
20260506172318 6 313 3.2 4.8 0.23 2.92 2.03 96 1007.8
20260506171811 6 313 3.2 3.2 0.23 2.90 2.01 96 1007.8
20260506171324 6 329 1.6 3.2 0.25 2.90 2.01 97 1007.7
20260506170816 6 329 0.0 1.6 0.25 2.87 1.98 97 1007.7
20260506170328 6 329 0.0 4.8 0.28 2.87 1.98 97 1007.7
20260506165819 6 324 3.2 4.8 0.28 2.84 1.96 97 1007.8
20260506165337 6 307 1.6 3.2 0.30 2.84 1.96 97 1007.9
20260506164808 6 247 0.0 1.6 0.33 2.82 1.93 97 1007.8
20260506164320 6 247 0.0 1.6 0.36 2.82 1.93 97 1007.9
20260506163813 6 247 0.0 3.2 0.36 2.79 1.91 97 1008.0
20260506163311 6 247 0.0 3.2 0.33 2.77 1.88 97 1008.1
20260506162843 6 247 0.0 3.2 0.30 2.72 1.83 96 1008.0
20260506162314 6 247 1.6 3.2 0.30 2.69 1.80 96 1008.1
20260506161825 6 247 3.2 6.4 0.30 2.67 1.78 96 1008.1
20260506161336 6 245 3.2 6.4 0.30 2.64 1.75 96 1008.4
20260506160808 6 289 1.6 4.8 0.30 2.62 1.73 96 1008.4
20260506160321 6 315 0.0 4.8 0.30 2.59 1.70 96 1008.3
20260506155823 6 315 3.2 8.0 0.30 2.57 1.68 96 1008.4
20260506155316 6 329 3.2 8.0 0.30 2.54 1.65 96 1008.5
20260506154810 6 351 3.2 6.4 0.25 2.49 1.60 96 1008.5
20260506154322 6 322 3.2 11.3 0.25 2.46 1.57 96 1008.4
20260506153823 6 350 3.2 11.3 0.25 2.44 1.55 96 1008.4
20260506153325 6 315 3.2 8.0 0.25 2.44 1.55 96 1008.5
20260506152817 6 344 4.8 8.0 0.25 2.41 1.52 96 1008.3
20260506152311 6 319 3.2 4.8 0.23 2.36 1.47 96 1008.2
20260506151825 6 332 1.6 4.8 0.23 2.36 1.47 96 1008.2
20260506151316 6 317 1.6 4.8 0.23 2.34 1.45 96 1008.2
20260506150810 6 76 1.6 4.8 0.23 2.31 1.42 95 1007.9
20260506150343 6 71 0.0 3.2 0.20 2.29 1.40 96 1007.9
20260506145834 6 333 0.0 3.2 0.20 2.26 1.37 96 1008.0
20260506145307 6 12 1.6 4.8 0.18 2.24 1.35 95 1008.0
20260506144820 6 95 0.0 6.4 0.20 2.24 1.35 95 1008.0
20260506144314 6 70 3.2 8.0 0.18 2.21 1.32 95 1008.0
20260506143808 6 61 4.8 8.0 0.15 2.18 1.30 96 1008.1
20260506143320 6 68 1.6 3.2 0.13 2.16 1.27 96 1008.2
20260506142814 6 275 0.0 1.6 0.13 2.16 1.27 96 1008.2
20260506142307 6 275 0.0 3.2 0.10 2.13 1.24 96 1008.5
20260506141818 6 273 1.6 3.2 0.10 2.13 1.24 96 1008.5
20260506141310 6 273 0.0 3.2 0.10 2.11 1.22 96 1008.2
20260506140823 6 273 0.0 3.2 0.08 2.08 1.19 96 1008.2
20260506140316 6 335 0.0 3.2 0.05 2.06 1.17 95 1008.3
20260506135809 6 15 0.0 11.3 0.05 2.06 1.17 95 1008.2
20260506135321 6 29 3.2 11.3 0.05 2.06 1.17 95 1008.0
20260506134817 6 67 4.8 8.0 0.08 2.03 1.14 95 1008.0
20260506134308 6 91 3.2 6.4 0.10 2.03 1.14 95 1008.0
20260506133822 7 313 1.6 4.8 0.10 2.03 1.14 95 1008.2
20260506133315 7 313 1.6 4.8 0.13 2.03 1.14 96 1008.2
20260506132808 7 349 1.6 3.2 0.15 2.03 1.14 96 1008.3
20260506132320 7 349 1.6 3.2 0.18 2.03 1.14 96 1008.3
20260506131814 7 349 0.0 4.8 0.18 2.03 1.14 96 1008.5
20260506131306 7 349 0.0 4.8 0.18 2.01 1.12 96 1008.7
20260506130820 7 286 0.0 3.2 0.20 2.01 1.12 96 1008.7
20260506130322 7 286 0.0 3.2 0.20 2.01 1.12 96 1008.8
20260506125815 7 286 1.6 4.8 0.23 2.01 1.12 96 1008.8
20260506125344 7 347 1.6 8.0 0.25 2.01 1.12 96 1008.8
20260506124816 7 320 1.6 12.9 0.23 1.96 1.07 96 1008.9
20260506124330 7 116 8.0 12.9 0.20 1.93 1.04 96 1008.5
20260506123821 7 283 6.4 11.3 0.20 1.91 1.02 96 1008.6
20260506123315 7 118 1.6 12.9 0.23 1.91 1.02 96 1008.7
20260506122806 7 122 8.0 12.9 0.23 1.88 0.99 96 1008.6
20260506122318 7 58 0.0 4.8 0.23 1.85 0.97 96 1009.0
20260506121810 7 343 1.6 8.0 0.25 1.85 0.97 96 1009.3
20260506121341 7 316 0.0 6.4 0.23 1.83 0.94 96 1009.1
20260506120813 7 320 1.6 6.4 0.23 1.80 0.91 96 1009.1